Search your local weather  

 

Hazardous Weather Conditions

Flash Flood Watch issued September 20 at 8:44PM CDT until September 22 at 7:00PM CDT
Tropical Storm Warning issued September 20 at 10:02PM CDT
Tropical Cyclone Statement issued September 20 at 10:45PM CDT

Current Conditions: HOUSTON, TEXAS

Light Rain


70.0 F

Last Updated on Sep 21 2020, 1:53 am CDT
Humidity: 87%
Wind Speed: NE 10.4 mph
Barometer 29.95 in
Dewpoint: 66.0 F
Visibility: 7.00 mi
Precip: 00.04 in
Heat Index: NA
Wind Chill: NA
Current conditions at:

Houston, Hooks Memorial Airport, TX (KDWH)

Lat: 30.0675 Lon: -95.55611

Local Radar Image active severe weather and emergency alerts image image weather storm and storm spotter reports image weather observation monitoring service image
Local
Radar
Active
Alerts
Storm Reports Weather
Monitoring

Sign-up For Email & Text Message Weather Alert Notification Services



Advertise Here

Observation History for HOUSTON, TEXAS


Time Wind
(mph)
Vis
(mi)
Weather Precip (in) Temperature (F) Relative
Humidity
Wind
Chill
(F)
Heat
Index
(F)
Pressure
Air Dwpt altimeter
(in)
sea level
(mb)
1:53 am CDT NE 10.4 7.00 Light Rain 00.04 70.0 66.0 87% NA NA 29.95 1013.8
12:53 am CDT 5.8 6.00 Light Rain Fog/Mist 00.07 71.0 66.9 87% NA NA 29.96 1014.3
11:53 pm CDT NE 8.1 G 21.9 10.00 Light Rain Trace 72.0 66.9 84% NA NA 29.96 1014.4
10:53 pm CDT NE 10.4 G 17.3 10.00 Overcast 00.01 72.0 68.0 87% NA NA 29.97 1014.7
9:53 pm CDT NE 11.5 G 19.6 10.00 Light Rain 00.01 72.0 68.0 87% NA NA 29.97 1014.7
8:53 pm CDT NE 9.2 7.00 Light Rain 00.01 73.0 69.1 87% NA NA 29.96 1014.4
7:53 pm CDT N 10.4 G 19.6 10.00 Overcast -- 73.0 69.1 87% NA NA 29.96 1014.1
6:53 pm CDT N 8.1 10.00 Overcast -- 73.0 68.0 84% NA NA 29.96 1014.4
5:53 pm CDT NE 10.4 9.00 Overcast 00.01 72.0 68.0 87% NA NA 29.96 1014.4
4:53 pm CDT N 12.7 G 18.4 2.00 Light Rain Fog/Mist 00.03 72.0 68.0 87% NA NA 29.95 1014.0
3:53 pm CDT N 12.7 G 18.4 2.50 Light Rain Fog/Mist 00.08 71.0 68.0 90% NA NA 29.96 1014.2
2:53 pm CDT N 10.4 G 17.3 2.00 Heavy Rain Fog/Mist 00.11 72.0 68.0 87% NA NA 29.97 1014.7
1:53 pm CDT N 9.2 2.00 Light Rain 00.01 74.0 66.0 76% NA NA 29.98 1014.9
12:53 pm CDT NE 9.2 10.00 Overcast -- 78.0 63.0 60% NA NA 29.99 1015.3
11:53 am CDT NE 12.7 G 19.6 10.00 Overcast -- 78.0 63.0 60% NA NA 30.01 1015.9
10:53 am CDT N 15.0 G 21.9 10.00 Fair -- 78.0 62.1 58% NA NA 30.02 1016.1
9:53 am CDT N 12.7 G 18.4 10.00 Fair -- 73.0 60.1 64% NA NA 30.02 1016.2
8:53 am CDT N 10.4 10.00 Fair -- 70.0 59.0 68% NA NA 30.02 1016.4
7:53 am CDT N 6.9 10.00 Fair -- 66.0 57.0 73% NA NA 30.02 1016.3
6:53 am CDT N 8.1 10.00 Fair -- 65.0 57.0 76% NA NA 30.01 1016.0
5:53 am CDT N 4.6 10.00 Fair -- 66.0 57.0 73% NA NA 30.01 1016.0
4:53 am CDT N 6.9 10.00 Fair -- 66.0 55.9 70% NA NA 30.00 1015.6
3:53 am CDT N 5.8 10.00 Fair -- 68.0 55.9 65% NA NA 29.99 1015.4
2:53 am CDT N 6.9 10.00 Fair -- 68.0 57.0 68% NA NA 30.01 1016.1

Regional Weather Observation

John Dunn Helistop, TX (KMCJ)

Overcast
70.0 F

Houston, Houston Hobby Airport, TX (KHOU)

Light Rain
72.0 F

Conroe, Montgomery County Airport, TX (KCXO)

Light Rain Fog/Mist
70.0 F

Houston Southwest Airport, TX (KAXH)

Light Drizzle
69.0 F

Houston, Pearland Regional Airport, TX (KLVJ)

Light Rain
72.0 F

Cleveland, TX (K6R3)

Heavy Rain
69.0 F

Advertise Here


Advertise Here